FW8459 Weather Reports


time (UTC)temp
F
wind
direction
speed
knots
gust
knots
rain 1hr
in
rain 24hr
in
rain mn
in
humidity
%
barometer
mb
20260901110851 50 270 0.0 0.0 0.00 0.00 0.00 90 1022.1
20260901110347 50 281 0.0 0.0 0.00 0.00 0.00 89 1022.1
20260901105843 50 276 0.0 0.0 0.00 0.00 0.00 89 1022.2
20260901105338 50 273 0.0 0.0 0.00 0.00 0.00 89 1022.3
20260901104834 50 296 0.0 0.0 0.00 0.00 0.00 89 1022.3
20260901104330 51 291 0.0 0.0 0.00 0.00 0.00 88 1022.3
20260901103825 51 295 0.0 0.0 0.00 0.00 0.00 88 1022.6
20260901103324 51 248 0.0 0.0 0.00 0.00 0.00 88 1022.5
20260901102820 51 286 0.0 0.0 0.00 0.00 0.00 87 1022.3
20260901102314 51 277 0.0 0.0 0.00 0.00 0.00 87 1022.6
20260901101810 51 215 0.0 0.9 0.00 0.00 0.00 87 1022.7
20260901101309 51 225 0.0 0.9 0.00 0.00 0.00 87 1022.5
20260901100809 51 248 0.0 0.0 0.00 0.00 0.00 86 1022.6
20260901100304 51 272 0.0 0.0 0.00 0.00 0.00 85 1022.7
20260901095802 52 289 0.0 0.0 0.00 0.00 0.00 85 1022.7
20260901095300 52 207 0.9 0.9 0.00 0.00 0.00 85 1022.7
20260901094754 53 269 0.0 0.0 0.00 0.00 0.00 84 1022.8
20260901094249 53 266 0.0 0.9 0.00 0.00 0.00 84 1022.5
20260901093745 53 255 0.0 0.0 0.00 0.00 0.00 83 1022.7
20260901093243 54 263 0.0 0.0 0.00 0.00 0.00 82 1022.5
20260901092740 54 266 0.0 0.0 0.00 0.00 0.00 82 1022.7
20260901092235 55 265 0.0 0.0 0.00 0.00 0.00 82 1022.6
20260901091731 55 246 0.0 0.0 0.00 0.00 0.00 81 1022.5
20260901091226 55 252 0.0 0.0 0.00 0.00 0.00 80 1022.5
20260901090721 55 273 0.0 0.0 0.00 0.00 0.00 79 1022.5
20260901090216 56 271 0.0 0.0 0.00 0.00 0.00 78 1022.4
20260901085712 56 267 0.0 0.0 0.00 0.00 0.00 78 1022.4
20260901085207 57 269 0.0 0.0 0.00 0.00 0.00 77 1022.6
20260901084703 57 280 0.0 0.0 0.00 0.00 0.00 76 1022.4
20260901084200 58 293 0.0 0.0 0.00 0.00 0.00 75 1022.3
20260901083659 59 306 0.0 0.0 0.00 0.00 0.00 74 1022.2
20260901083158 59 288 0.0 0.0 0.00 0.00 0.00 74 1022.0
20260901082652 59 51 0.9 4.3 0.00 0.00 0.00 74 1022.2
20260901082148 59 325 0.0 0.0 0.00 0.00 0.00 73 1022.2
20260901081643 59 306 0.0 0.0 0.00 0.00 0.00 72 1022.3
20260901081142 60 247 0.0 0.0 0.00 0.00 0.00 72 1022.1
20260901080637 60 341 0.0 0.0 0.00 0.00 0.00 71 1022.0
20260901080136 59 169 0.0 0.9 0.00 0.00 0.00 71 1022.2
20260901075631 60 238 0.0 0.0 0.00 0.00 0.00 71 1022.1
20260901075131 60 219 0.0 0.0 0.00 0.00 0.00 70 1022.4
20260901074630 61 256 0.0 0.9 0.00 0.00 0.00 69 1022.2
20260901074126 61 255 0.0 0.9 0.00 0.00 0.00 68 1022.0
20260901073622 62 235 0.0 0.0 0.00 0.00 0.00 66 1021.9
20260901073118 62 224 0.9 0.9 0.00 0.00 0.00 65 1022.0
20260901072613 62 171 0.9 0.9 0.00 0.00 0.00 64 1022.2
20260901072108 62 356 0.9 2.6 0.00 0.00 0.00 65 1022.2
20260901071607 63 193 0.9 0.9 0.00 0.00 0.00 66 1022.3
20260901071107 63 164 0.0 0.9 0.00 0.00 0.00 66 1021.9
20260901070601 64 245 0.0 0.9 0.00 0.00 0.00 65 1022.4
20260901070057 64 165 1.7 1.7 0.00 0.00 0.00 64 1022.3
20260901065550 64 258 1.7 1.7 0.00 0.00 0.00 63 1022.2
20260901065045 64 255 0.0 0.9 0.00 0.00 0.00 62 1022.2
20260901064543 65 140 1.7 2.6 0.00 0.00 0.00 61 1022.4
20260901064038 65 41 1.7 2.6 0.00 0.00 0.00 60 1022.4
20260901063535 65 231 0.9 1.7 0.00 0.00 0.00 59 1022.4
20260901063031 65 172 2.6 2.6 0.00 0.00 0.00 59 1022.6
20260901062526 65 181 0.9 0.9 0.00 0.00 0.00 59 1022.3
20260901062022 65 277 2.6 2.6 0.00 0.00 0.00 59 1022.5
20260901061518 65 166 0.9 0.9 0.00 0.00 0.00 59 1022.6
20260901061013 66 189 4.3 5.2 0.00 0.00 0.00 58 1022.6
20260901060507 66 122 1.7 2.6 0.00 0.00 0.00 58 1022.6
20260901060002 66 37 0.9 0.9 0.00 0.00 0.00 59 1022.9
20260901055458 65 161 0.9 1.7 0.00 0.00 0.00 59 1022.6
20260901054954 65 198 1.7 1.7 0.00 0.00 0.00 58 1022.8
20260901054451 66 163 1.7 2.6 0.00 0.00 0.00 56 1022.8
20260901053947 67 186 2.6 2.6 0.00 0.00 0.00 55 1023.0
20260901053442 67 208 2.6 4.3 0.00 0.00 0.00 55 1023.0
20260901052938 66 290 0.9 1.7 0.00 0.00 0.00 55 1022.8
20260901052433 66 193 1.7 2.6 0.00 0.00 0.00 55 1022.9
20260901051932 66 254 1.7 2.6 0.00 0.00 0.00 55 1022.9
20260901051427 66 242 3.5 5.2 0.00 0.00 0.00 54 1022.8
20260901050928 66 207 2.6 4.3 0.00 0.00 0.00 54 1022.8
20260901050423 67 254 2.6 4.3 0.00 0.00 0.00 53 1022.9
20260901045922 67 266 2.6 2.6 0.00 0.00 0.00 52 1023.0
20260901045418 67 251 4.3 6.1 0.00 0.00 0.00 52 1022.8
20260901044913 66 246 0.9 0.9 0.00 0.00 0.00 51 1022.9
20260901044409 67 216 1.7 1.7 0.00 0.00 0.00 51 1022.9
20260901043904 68 195 1.7 1.7 0.00 0.00 0.00 50 1023.0
20260901043400 68 165 2.6 5.2 0.00 0.00 0.00 49 1023.0
20260901042855 70 214 0.9 1.7 0.00 0.00 0.00 47 1023.0
20260901042354 71 200 3.5 5.2 0.00 0.00 0.00 46 1023.0
20260901041850 68 314 0.9 0.9 0.00 0.00 0.00 49 1023.1
20260901041345 69 198 1.7 2.6 0.00 0.00 0.00 49 1023.2
20260901040840 67 206 2.6 2.6 0.00 0.00 0.00 50 1023.2
20260901040339 68 160 2.6 5.2 0.00 0.00 0.00 49 1023.2
20260901035838 68 244 3.5 4.3 0.00 0.00 0.00 50 1023.2
20260901035337 70 171 3.5 4.3 0.00 0.00 0.00 47 1023.6
20260901034836 70 26 3.5 7.0 0.00 0.00 0.00 46 1023.5
20260901034331 71 287 2.6 4.3 0.00 0.00 0.00 46 1023.7
20260901033831 71 144 2.6 2.6 0.00 0.00 0.00 46 1023.5
20260901033330 71 304 0.9 1.7 0.00 0.00 0.00 47 1024.1
20260901032829 69 220 4.3 6.1 0.00 0.00 0.00 47 1024.0
20260901032328 70 205 3.5 5.2 0.00 0.00 0.00 46 1023.9
20260901031824 69 127 1.7 2.6 0.00 0.00 0.00 48 1024.2
20260901031320 69 189 4.3 5.2 0.00 0.00 0.00 47 1024.3
20260901030819 71 276 2.6 4.3 0.00 0.00 0.00 47 1024.2
20260901030315 69 293 2.6 2.6 0.00 0.00 0.00 48 1024.3
20260901025814 70 24 0.9 1.7 0.00 0.00 0.00 47 1024.5
20260901025309 68 35 1.7 2.6 0.00 0.00 0.00 49 1024.2
20260901024804 67 44 1.7 2.6 0.00 0.00 0.00 50 1024.4
20260901024303 67 78 1.7 2.6 0.00 0.00 0.00 49 1024.6
20260901023801 68 168 2.6 4.3 0.00 0.00 0.00 47 1024.9
20260901023256 70 179 3.5 4.3 0.00 0.00 0.00 47 1024.7
20260901022751 69 220 2.6 2.6 0.00 0.00 0.00 49 1025.0
20260901022247 69 105 2.6 4.3 0.00 0.00 0.00 48 1025.0
20260901021742 69 221 0.9 1.7 0.00 0.00 0.00 48 1025.2
20260901021238 68 190 0.9 1.7 0.00 0.00 0.00 48 1024.9
20260901020733 68 183 3.5 6.1 0.00 0.00 0.00 51 1025.1
20260901020229 68 253 0.9 1.7 0.00 0.00 0.00 49 1025.6
20260901015729 69 349 0.9 1.7 0.00 0.00 0.00 50 1025.5
20260901015225 68 213 0.9 0.9 0.00 0.00 0.00 53 1025.5
20260901014724 69 245 1.7 1.7 0.00 0.00 0.00 51 1025.7
20260901014220 69 331 2.6 4.3 0.00 0.00 0.00 53 1025.8
20260901013715 69 314 2.6 4.3 0.00 0.00 0.00 53 1026.3
20260901013211 69 218 0.9 1.7 0.00 0.00 0.00 53 1025.9
20260901012706 69 15 1.7 2.6 0.00 0.00 0.00 54 1026.2
20260901012201 67 347 0.0 0.0 0.00 0.00 0.00 58 1026.6
20260901011657 66 355 3.5 5.2 0.00 0.00 0.00 59 1026.7
20260901011156 66 20 1.7 1.7 0.00 0.00 0.00 60 1026.2
20260901010651 65 354 2.6 2.6 0.00 0.00 0.00 61 1026.8
20260901010150 65 339 0.9 0.9 0.00 0.00 0.00 61 1027.0
20260901005644 64 355 0.9 0.9 0.00 0.00 0.00 62 1027.1
20260901005140 64 26 0.9 0.9 0.00 0.00 0.00 62 1027.0
20260901004639 64 359 2.6 2.6 0.00 0.00 0.00 61 1027.1
20260901004133 66 339 0.9 1.7 0.00 0.00 0.00 59 1027.3
20260901003628 65 354 0.9 0.9 0.00 0.00 0.00 60 1027.3
20260901003122 64 345 1.7 2.6 0.00 0.00 0.00 61 1027.5
20260901002622 63 346 0.9 0.9 0.00 0.00 0.00 63 1027.4
20260901002116 62 349 1.7 2.6 0.00 0.00 0.00 63 1027.5
20260901001606 62 20 0.9 0.9 0.00 0.00 0.00 63 1027.7
20260901001101 62 30 1.7 1.7 0.00 0.00 0.00 63 1027.7
20260901000555 61 338 0.0 0.0 0.00 0.00 0.00 66 1027.7
20260901000051 62 12 0.0 0.9 0.00 0.00 0.00 63 1027.8
20260831235544 61 336 0.0 0.0 0.00 0.00 0.00 63 1028.2
20260831235040 60 43 0.0 0.0 0.00 0.00 0.00 64 1028.2
20260831234534 61 5 2.6 2.6 0.00 0.00 0.00 62 1028.2
20260831234031 61 60 0.9 0.9 0.00 0.00 0.00 61 1028.6
20260831233525 60 47 0.0 0.0 0.00 0.00 0.00 63 1028.6
20260831233020 59 2 0.0 0.0 0.00 0.00 0.00 64 1028.5
20260831232516 59 26 0.9 0.9 0.00 0.00 0.00 64 1028.5
20260831232011 57 16 0.0 0.9 0.00 0.00 0.00 67 1028.6
20260831231508 57 295 0.9 0.9 0.00 0.00 0.00 67 1028.7
20260831231004 58 210 0.9 0.9 0.00 0.00 0.00 66 1028.6
20260831230459 57 38 0.0 0.0 0.00 0.00 0.00 69 1028.7
20260831225958 56 0 0.0 0.0 0.00 0.00 0.00 71 1028.8
20260831225455 54 342 0.0 0.0 0.00 0.00 0.00 74 1028.8
20260831224954 53 335 0.0 0.0 0.00 0.00 0.00 74 1028.9
20260831224449 53 65 0.0 0.9 0.00 0.00 0.00 73 1028.9
20260831223944 53 286 0.9 0.9 0.00 0.00 0.00 73 1028.9
20260831223439 52 355 0.0 0.0 0.00 0.00 0.00 75 1028.9
20260831222936 52 355 0.0 0.0 0.00 0.00 0.00 76 1028.9
20260831222431 50 35 0.0 0.9 0.00 0.00 0.00 80 1029.1
20260831221926 51 221 0.9 0.9 0.00 0.00 0.00 78 1029.0
20260831221422 49 356 0.9 0.9 0.00 0.00 0.00 81 1029.2
20260831220917 49 277 0.9 0.9 0.00 0.00 0.00 85 1029.2
20260831220412 49 303 0.0 0.0 0.00 0.00 0.00 88 1029.2
20260831215907 47 359 0.0 0.0 0.00 0.00 0.00 93 1029.0
20260831215403 47 7 0.9 0.9 0.00 0.00 0.00 99 1029.2
20260831214859 46 351 0.0 0.0 0.00 0.00 0.00 99 1029.3
20260831214356 45 313 0.0 0.0 0.00 0.00 0.00 99 1029.4
20260831213852 44 40 0.0 0.0 0.00 0.00 0.00 99 1029.2
20260831213348 43 16 0.0 0.0 0.00 0.00 0.00 99 1029.3
20260831212843 41 338 0.0 0.0 0.00 0.00 0.00 99 1029.4
20260831212340 40 324 0.0 0.0 0.00 0.00 0.00 99 1029.4
20260831211838 39 300 0.0 0.0 0.00 0.00 0.00 99 1029.4
20260831211333 38 287 0.0 0.0 0.00 0.00 0.00 99 1029.3
20260831210833 37 288 0.0 0.0 0.00 0.00 0.00 99 1028.9
20260831210329 36 292 0.0 0.0 0.00 0.00 0.00 99 1029.4
20260831205824 35 301 0.0 0.0 0.00 0.00 0.00 99 1029.2
20260831205320 35 297 0.0 0.0 0.00 0.00 0.00 99 1029.0
20260831204820 34 293 0.0 0.0 0.00 0.00 0.00 99 1029.2
20260831204319 34 290 0.0 0.0 0.00 0.00 0.00 99 1029.0
20260831203818 34 297 0.0 0.0 0.00 0.00 0.00 99 1028.9
20260831203313 34 285 0.0 0.0 0.00 0.00 0.00 99 1029.0
20260831202811 34 291 0.0 0.0 0.00 0.00 0.00 99 1028.7
20260831202306 34 291 0.0 0.0 0.00 0.00 0.00 99 1028.7
20260831201800 34 282 0.0 0.0 0.00 0.00 0.00 99 1028.9
20260831201259 34 288 0.0 0.0 0.00 0.00 0.00 99 1028.7
20260831200755 34 287 0.0 0.0 0.00 0.00 0.00 99 1028.7
20260831200250 34 287 0.0 0.0 0.00 0.00 0.00 99 1028.8
20260831195745 34 287 0.0 0.0 0.00 0.00 0.00 99 1028.8
20260831195241 34 287 0.0 0.0 0.00 0.00 0.00 99 1028.8
20260831194736 34 291 0.0 0.0 0.00 0.00 0.00 99 1028.7
20260831194232 34 283 0.0 0.0 0.00 0.00 0.00 99 1028.6
20260831193725 34 290 0.0 0.0 0.00 0.00 0.00 99 1028.6
20260831193221 34 292 0.0 0.0 0.00 0.00 0.00 99 1028.8
20260831192716 34 284 0.0 0.0 0.00 0.00 0.00 99 1028.6
20260831192211 34 283 0.0 0.0 0.00 0.00 0.00 99 1028.7
20260831191707 34 291 0.0 0.0 0.00 0.00 0.00 99 1028.9
20260831191203 34 293 0.0 0.0 0.00 0.00 0.00 99 1028.7
20260831190657 34 293 0.0 0.0 0.00 0.00 0.00 99 1028.6
20260831190157 35 294 0.0 0.0 0.00 0.00 0.00 99 1028.5
20260831185652 35 293 0.0 0.0 0.00 0.00 0.00 99 1028.6
20260831185148 35 292 0.0 0.0 0.00 0.00 0.00 99 1028.7
20260831184647 35 292 0.0 0.0 0.00 0.00 0.00 99 1028.7
20260831184143 35 288 0.0 0.0 0.00 0.00 0.00 99 1028.6
20260831183642 35 287 0.0 0.0 0.00 0.00 0.00 99 1028.5
20260831183142 36 288 0.0 0.0 0.00 0.00 0.00 99 1028.8
20260831182641 36 287 0.0 0.0 0.00 0.00 0.00 99 1028.7
20260831182137 36 280 0.0 0.0 0.00 0.00 0.00 99 1028.6
20260831181637 36 272 0.0 0.0 0.00 0.00 0.00 99 1028.7
20260831181137 36 288 0.0 0.0 0.00 0.00 0.00 99 1028.6
20260831180633 36 289 0.0 0.0 0.00 0.00 0.00 99 1028.7
20260831180128 36 283 0.0 0.0 0.00 0.00 0.00 99 1028.7
20260831175622 36 287 0.0 0.0 0.00 0.00 0.00 99 1028.7
20260831175120 37 287 0.0 0.0 0.00 0.00 0.00 99 1028.6
20260831174619 37 287 0.0 0.0 0.00 0.00 0.00 99 1028.6
20260831174114 37 291 0.0 0.0 0.00 0.00 0.00 99 1028.6
20260831173612 37 285 0.0 0.0 0.00 0.00 0.00 98 1028.4
20260831173109 37 279 0.0 0.0 0.00 0.00 0.00 98 1028.5
20260831172608 37 271 0.0 0.0 0.00 0.00 0.00 99 1028.6
20260831172103 38 282 0.0 0.0 0.00 0.00 0.00 99 1028.6
20260831171559 38 288 0.0 0.0 0.00 0.00 0.00 98 1028.5
20260831171056 38 285 0.0 0.0 0.00 0.00 0.00 98 1028.6
20260831170551 38 304 0.0 0.0 0.00 0.00 0.00 98 1028.7
20260831170049 38 299 0.0 0.0 0.00 0.00 0.00 98 1028.6
20260831165549 38 296 0.0 0.0 0.00 0.00 0.00 98 1028.9
20260831165046 38 287 0.0 0.0 0.00 0.00 0.00 98 1028.8
20260831164541 39 279 0.0 0.0 0.00 0.00 0.00 98 1028.7
20260831164037 39 294 0.0 0.0 0.00 0.00 0.00 98 1028.8
20260831163532 39 302 0.0 0.0 0.00 0.00 0.00 98 1028.9
20260831163027 39 286 0.0 0.0 0.00 0.00 0.00 98 1028.9
20260831162526 39 245 0.9 0.9 0.00 0.00 0.00 98 1029.0
20260831162024 39 273 0.0 0.0 0.00 0.00 0.00 98 1029.0
20260831161521 39 291 0.0 0.0 0.00 0.00 0.00 98 1029.0
20260831161016 39 277 0.0 0.0 0.00 0.00 0.00 98 1029.3
20260831160516 39 292 0.0 0.0 0.00 0.00 0.00 97 1029.3
20260831160012 39 297 0.0 0.0 0.00 0.00 0.00 97 1029.4
20260831155506 39 285 0.0 0.0 0.00 0.00 0.00 97 1029.3
20260831155001 39 288 0.0 0.0 0.00 0.00 0.00 97 1029.2
20260831154458 39 292 0.0 0.0 0.00 0.00 0.00 97 1029.3
20260831153956 39 292 0.0 0.0 0.00 0.00 0.00 97 1029.4
20260831153451 39 292 0.0 0.0 0.00 0.00 0.00 97 1029.5
20260831152948 39 292 0.0 0.0 0.00 0.00 0.00 97 1029.4
20260831152443 40 283 0.0 0.0 0.00 0.00 0.00 96 1029.7
20260831151938 40 282 0.0 0.0 0.00 0.00 0.00 96 1029.8
20260831151437 40 281 0.0 0.0 0.00 0.00 0.00 96 1029.4
20260831150933 40 283 0.0 0.0 0.00 0.00 0.00 96 1029.4
20260831150428 40 277 0.0 0.0 0.00 0.00 0.00 96 1029.5
20260831145928 40 277 0.0 0.0 0.00 0.00 0.00 96 1029.3
20260831145424 40 279 0.0 0.0 0.00 0.00 0.00 96 1029.8
20260831144920 40 284 0.0 0.0 0.00 0.00 0.00 96 1029.7
20260831144415 41 258 0.0 0.0 0.00 0.00 0.00 96 1029.7
20260831143915 41 277 0.0 0.0 0.00 0.00 0.00 96 1029.4
20260831143411 41 279 0.0 0.0 0.00 0.00 0.00 95 1029.5
20260831142907 41 286 0.0 0.0 0.00 0.00 0.00 95 1029.7
20260831142402 41 270 0.0 0.0 0.00 0.00 0.00 95 1029.9
20260831141856 41 268 0.0 0.0 0.00 0.00 0.00 95 1029.5
20260831141350 42 285 0.0 0.0 0.00 0.00 0.00 95 1029.8
20260831140845 42 274 0.0 0.0 0.00 0.00 0.00 95 1029.7
20260831140340 42 270 0.0 0.0 0.00 0.00 0.00 95 1029.8
20260831135838 42 275 0.0 0.0 0.00 0.00 0.00 94 1030.1
20260831135333 41 290 0.0 0.0 0.00 0.00 0.00 94 1029.9
20260831134829 42 290 0.0 0.0 0.00 0.00 0.00 94 1029.8
20260831134325 42 277 0.0 0.0 0.00 0.00 0.00 94 1029.8
20260831133824 42 267 0.0 0.0 0.00 0.00 0.00 94 1029.8
20260831133324 42 272 0.0 0.0 0.00 0.00 0.00 93 1029.8
20260831132820 43 293 0.0 0.0 0.00 0.00 0.00 93 1030.0
20260831132315 43 292 0.0 0.0 0.00 0.00 0.00 93 1029.8
20260831131809 44 298 0.0 0.0 0.00 0.00 0.00 93 1030.1
20260831131306 44 298 0.0 0.0 0.00 0.00 0.00 93 1030.0
20260831130805 44 281 0.0 0.0 0.00 0.00 0.00 93 1030.0
20260831130301 44 272 0.0 0.0 0.00 0.00 0.00 93 1030.3
20260831125800 44 258 0.0 0.9 0.00 0.00 0.00 93 1030.1
20260831125255 44 287 0.0 0.0 0.00 0.00 0.00 92 1030.0
20260831124750 44 290 0.0 0.0 0.00 0.00 0.00 92 1030.1
20260831124246 44 297 0.0 0.0 0.00 0.00 0.00 92 1030.3
20260831123741 45 283 0.0 0.0 0.00 0.00 0.00 92 1030.1
20260831123240 45 235 0.9 0.9 0.00 0.00 0.00 92 1030.3
20260831122739 45 241 0.9 0.9 0.00 0.00 0.00 91 1030.1
20260831122235 45 286 0.0 0.0 0.00 0.00 0.00 91 1030.3
20260831121734 45 252 0.0 0.9 0.00 0.00 0.00 91 1030.0
20260831121231 46 305 0.0 0.0 0.00 0.00 0.00 90 1030.0
20260831120726 46 315 0.0 0.0 0.00 0.00 0.00 90 1030.1
20260831120221 46 261 0.0 0.0 0.00 0.00 0.00 89 1030.2
20260831115716 46 290 0.0 0.0 0.00 0.00 0.00 88 1030.0
20260831115213 46 267 0.0 0.0 0.00 0.00 0.00 88 1030.2
20260831114712 47 290 0.0 0.0 0.00 0.00 0.00 88 1030.2
20260831114211 47 262 0.0 0.9 0.00 0.00 0.00 87 1030.3
20260831113707 48 319 0.0 0.0 0.00 0.00 0.00 87 1029.9
20260831113201 48 231 0.9 0.9 0.00 0.00 0.00 87 1030.1
20260831112700 48 243 0.9 1.7 0.00 0.00 0.00 87 1030.0
20260831112156 48 234 0.9 0.9 0.00 0.00 0.00 87 1030.0
20260831111651 48 273 0.0 0.0 0.00 0.00 0.00 86 1030.1
20260831111147 48 245 0.0 0.0 0.00 0.00 0.00 86 1030.2